Location: Newark
(45.9456°N, 15.4064°E)
Time: 16:50:15
(UTC+00:00)

deb Explorer IX - All Passes

Search period start: 19 January 2020 00:00
Search period end: 29 January 2020 00:00
Orbit: 548 x 1101 km, 38.8° (Epoch: 19 January)

Date Brightness Start Highest point End Pass type
(mag) Time Alt. Az. Time Alt. Az. Time Alt. Az.
19 Jan - 01:36:53 10° WSW 01:43:32 46° S 01:49:26 10° ESE visible
19 Jan - 03:24:22 10° W 03:30:07 32° SSW 03:35:10 10° SE visible
19 Jan - 05:13:54 10° WSW 05:15:58 12° SW 05:17:56 10° SSW visible
19 Jan - 21:42:57 10° S 21:47:49 19° SSE 21:52:37 10° ESE night (unlit)
19 Jan - 23:27:42 10° SW 23:34:19 38° SSE 23:40:30 10° E night (unlit)
20 Jan - 01:14:24 10° WSW 01:21:09 47° S 01:27:12 10° ESE night (unlit)
20 Jan - 03:01:53 10° W 03:07:46 32° SSW 03:12:59 10° SE visible
20 Jan - 04:51:19 10° WSW 04:53:39 12° SW 04:55:51 10° SSW visible
20 Jan - 21:20:29 10° S 21:25:24 20° SSE 21:30:18 10° ESE night (unlit)
20 Jan - 23:05:13 10° SW 23:11:53 39° SSE 23:18:12 10° E night (unlit)
21 Jan - 00:51:55 10° WSW 00:58:45 47° S 01:04:57 10° ESE night (unlit)
21 Jan - 02:39:23 10° W 02:45:24 33° SSW 02:50:47 10° SE visible
21 Jan - 04:28:46 10° WSW 04:31:19 13° SW 04:33:45 10° SSW visible
21 Jan - 20:58:01 10° S 21:02:59 20° SSE 21:07:57 10° ESE night (unlit)
21 Jan - 22:42:46 10° SW 22:49:27 39° SSE 22:55:53 10° E night (unlit)
22 Jan - 00:29:26 10° WSW 00:36:19 48° S 00:42:41 10° ESE night (unlit)
22 Jan - 02:16:53 10° W 02:23:01 33° SSW 02:28:33 10° SE visible
22 Jan - 04:06:12 10° WSW 04:08:58 13° SW 04:11:36 10° SSW visible
22 Jan - 20:35:34 10° S 20:40:32 20° SSE 20:45:33 10° ESE night (unlit)
22 Jan - 22:20:19 10° SW 22:26:59 40° SSE 22:33:32 10° E night (unlit)
23 Jan - 00:06:57 10° WSW 00:13:54 48° S 00:20:23 10° ESE night (unlit)
23 Jan - 01:54:23 10° W 02:00:37 34° SSW 02:06:17 10° SE visible
23 Jan - 03:43:38 10° WSW 03:46:36 13° SW 03:49:25 10° SSW visible
23 Jan - 20:13:08 10° SSW 20:18:06 20° SSE 20:23:09 10° ESE night (unlit)
23 Jan - 21:57:53 10° SW 22:04:32 40° SSE 22:11:09 10° E night (unlit)
23 Jan - 23:44:29 10° WSW 23:51:27 48° S 23:58:03 10° ESE night (unlit)
24 Jan - 01:31:53 10° W 01:38:11 34° SSW 01:44:01 10° SE night (unlit)
24 Jan - 03:21:05 10° WSW 03:24:13 14° SW 03:27:12 10° S visible
24 Jan - 19:50:44 10° SSW 19:55:39 20° SSE 20:00:42 10° ESE visible
24 Jan - 21:35:27 10° SW 21:42:04 40° SSE 21:48:45 10° E night (unlit)
24 Jan - 23:22:01 10° WSW 23:29:00 48° S 23:35:42 10° ESE night (unlit)
25 Jan - 01:09:23 10° W 01:15:46 34° SSW 01:21:41 10° SE night (unlit)
25 Jan - 02:58:33 10° WSW 03:01:49 14° SW 03:04:56 10° S visible
25 Jan - 19:28:21 10° SSW 19:33:12 20° SSE 19:38:15 10° ESE visible
25 Jan - 21:13:02 10° SW 21:19:36 41° SSE 21:26:19 10° E night (unlit)
25 Jan - 22:59:34 10° WSW 23:06:31 49° S 23:13:19 10° ESE night (unlit)
26 Jan - 00:46:53 10° W 00:53:18 34° SSW 00:59:22 10° SE night (unlit)
26 Jan - 02:36:01 10° WSW 02:39:24 14° SW 02:42:38 10° S night (unlit)
26 Jan - 19:05:59 10° SSW 19:10:45 20° SSE 19:15:45 10° ESE visible
26 Jan - 20:50:39 10° SW 20:57:08 41° SSE 21:03:52 10° E night (unlit)
26 Jan - 22:37:08 10° WSW 22:44:02 49° S 22:50:54 10° ESE night (unlit)
27 Jan - 00:24:24 10° W 00:30:51 34° SSW 00:36:59 10° SE night (unlit)
27 Jan - 02:13:29 10° WSW 02:16:58 14° SW 02:20:19 10° S night (unlit)
27 Jan - 18:43:39 10° S 18:48:18 20° SSE 18:53:14 10° ESE visible
27 Jan - 20:28:16 10° SW 20:34:39 41° SSE 20:41:23 10° E visible
27 Jan - 22:14:42 10° WSW 22:21:33 48° S 22:28:29 10° ESE night (unlit)
28 Jan - 00:01:56 10° W 00:08:22 34° SSW 00:14:36 10° SE night (unlit)
28 Jan - 01:50:59 10° WSW 01:54:31 14° SW 01:57:57 10° S night (unlit)
28 Jan - 18:21:18 10° S 18:25:51 20° SSE 18:30:43 10° ESE visible
28 Jan - 20:05:54 10° SW 20:12:11 40° SSE 20:18:53 10° E visible
28 Jan - 21:52:17 10° WSW 21:59:04 48° S 22:06:01 10° ESE night (unlit)
28 Jan - 23:39:28 10° W 23:45:53 34° SSW 23:52:10 10° SE night (unlit)
